Location: Casteau
(50.5142°N, 4.0161°E)
Time: 05:55:25
(UTC+00:00)

CZ-2C R/B - Pass Details

Date: 18 September 2020
Orbit: 640 x 704 km, 98.4° (Epoch: 22 October)

Event Time Altitude Azimuth Distance (km) Brightness Sun altitude
Rises 19:58:23 0° 17° (NNE) 2,962 7.2 -20.3°
Reaches altitude 10° 20:00:37 10° 21° (NNE) 2,051 6.3 -20.6°
Maximum altitude 20:05:02 61° 102° (ESE) 740 3.6 -21.2°
Enters shadow 20:05:32 56° 134° (SE) 771 3.6 -21.3°
